Location: Crocus Hill
(18.2167°N, 63.0667°W)
Time: 06:40:52
(UTC+00:00)

Cosmos 1844 Rocket - Visible Passes

Search period start: 06 June 2020 00:00
Search period end: 16 June 2020 00:00
Orbit: 824 x 845 km, 71.0° (Epoch: 05 June)

Date Brightness Start Highest point End Pass type
(mag) Time Alt. Az. Time Alt. Az. Time Alt. Az.
06 Jun 4.4 07:31:03 10° N 07:35:56 31° ENE 07:40:47 10° SE visible
07 Jun 4.6 07:14:00 10° NNE 07:18:41 27° ENE 07:23:20 10° SE visible
07 Jun 3.7 08:58:03 10° NW 09:02:17 23° WSW 09:06:31 10° SSW visible
08 Jun 4.7 06:56:59 10° NNE 07:01:26 24° ENE 07:05:53 10° ESE visible
08 Jun 3.6 08:40:36 10° NW 08:45:06 26° WSW 08:49:36 10° SSW visible
09 Jun 4.8 06:40:00 10° NNE 06:44:13 22° ENE 06:48:23 10° ESE visible
09 Jun 3.4 08:23:12 10° NW 08:27:54 29° WSW 08:31:35 15° SSW visible
10 Jun 4.9 06:23:03 10° NNE 06:26:58 19° ENE 06:29:43 14° ESE visible
10 Jun 3.2 08:05:49 10° NW 08:10:43 33° WSW 08:11:11 32° WSW visible
11 Jun 5.0 06:06:09 10° NNE 06:09:42 17° ENE 06:10:36 17° E visible
11 Jun 3.5 07:48:27 10° NW 07:52:07 32° WNW 07:52:07 32° WNW visible
12 Jun 5.2 05:49:19 10° NNE 05:52:05 15° ENE 05:52:05 15° ENE visible
12 Jun 4.0 07:31:07 10° NW 07:33:38 25° NW 07:33:38 25° NW visible
13 Jun 5.4 05:32:37 10° NE 05:33:55 12° NE 05:33:55 12° NE visible
13 Jun 4.4 07:13:49 10° NNW 07:15:30 20° NW 07:15:30 20° NW visible
14 Jun 4.8 06:56:31 10° NNW 06:57:35 16° NNW 06:57:35 16° NNW visible
15 Jun 5.0 06:39:15 10° NNW 06:39:51 13° NNW 06:39:51 13° NNW visible
